FW9567 Weather Reports


time (UTC)temp
F
wind
direction
speed
knots
gust
knots
rain 1hr
in
rain 24hr
in
rain mn
in
humidity
%
barometer
mb
20260508154540 66 343 2.6 4.3 0.00 0.00 0.00 52 1013.7
20260508154037 64 25 0.9 0.9 0.00 0.00 0.00 54 1014.1
20260508153534 63 146 1.7 1.7 0.00 0.00 0.00 53 1014.0
20260508153030 63 16 0.9 0.9 0.00 0.00 0.00 55 1014.0
20260508152527 63 39 0.9 0.9 0.00 0.00 0.00 55 1014.0
20260508152023 62 254 3.5 6.1 0.00 0.00 0.00 54 1014.1
20260508151520 62 294 2.6 2.6 0.00 0.00 0.00 54 1014.1
20260508151016 62 241 1.7 1.7 0.00 0.00 0.00 54 1014.2
20260508150514 61 61 0.9 0.9 0.00 0.00 0.00 55 1014.4
20260508150009 61 12 0.9 1.7 0.00 0.00 0.00 56 1014.3
20260508145506 61 170 0.9 1.7 0.00 0.00 0.00 56 1014.4
20260508145002 60 12 0.9 1.7 0.00 0.00 0.00 56 1014.5
20260508144500 60 44 0.9 0.9 0.00 0.00 0.00 57 1014.6
20260508143957 60 195 3.5 5.2 0.00 0.00 0.00 55 1014.7
20260508143455 60 189 1.7 2.6 0.00 0.00 0.00 58 1014.4
20260508142951 59 37 0.9 1.7 0.00 0.00 0.00 58 1014.5
20260508142448 59 211 1.7 1.7 0.00 0.00 0.00 56 1014.4
20260508141944 59 210 1.7 2.6 0.00 0.00 0.00 55 1014.4
20260508141441 59 208 0.9 0.9 0.00 0.00 0.00 55 1014.5
20260508140939 59 165 2.6 5.2 0.00 0.00 0.00 56 1014.4
20260508140436 59 238 0.9 1.7 0.00 0.00 0.00 57 1014.5
20260508135931 59 77 1.7 2.6 0.00 0.00 0.00 56 1014.5
20260508135428 58 321 2.6 2.6 0.00 0.00 0.00 57 1014.4
20260508134925 58 208 0.9 0.9 0.00 0.00 0.00 59 1014.4
20260508134421 58 203 2.6 2.6 0.00 0.00 0.00 58 1014.6
20260508133918 59 356 1.7 1.7 0.00 0.00 0.00 56 1014.5
20260508133416 60 179 1.7 2.6 0.00 0.00 0.00 56 1014.6
20260508132912 59 229 0.9 1.7 0.00 0.00 0.00 58 1014.7
20260508132410 59 212 2.6 5.2 0.00 0.00 0.00 58 1014.5
20260508131907 59 266 1.7 2.6 0.00 0.00 0.00 59 1014.5
20260508131402 58 197 0.9 1.7 0.00 0.00 0.00 60 1014.7
20260508130859 58 21 0.9 1.7 0.00 0.00 0.00 60 1014.4
20260508130356 58 279 0.9 0.9 0.00 0.00 0.00 61 1014.6
20260508125852 56 66 0.9 0.9 0.00 0.00 0.00 64 1014.6
20260508125348 55 171 0.9 0.9 0.00 0.00 0.00 64 1014.4
20260508124846 54 80 0.9 0.9 0.00 0.00 0.00 66 1014.6
20260508124343 53 118 0.9 0.9 0.00 0.00 0.00 66 1014.4
20260508123841 53 208 0.9 0.9 0.00 0.00 0.00 68 1014.3
20260508123340 53 51 0.0 0.0 0.00 0.00 0.00 70 1014.5
20260508122836 52 159 1.7 1.7 0.00 0.00 0.00 69 1014.8
20260508122332 52 214 1.7 1.7 0.00 0.00 0.00 69 1014.6
20260508121830 52 120 2.6 4.3 0.00 0.00 0.00 69 1014.4
20260508121328 51 316 2.6 2.6 0.00 0.00 0.00 69 1014.5
20260508120826 51 45 0.0 0.0 0.00 0.00 0.00 72 1014.5
20260508120323 51 351 0.0 0.0 0.00 0.00 0.00 72 1014.3
20260508115820 50 124 0.9 0.9 0.00 0.00 0.00 72 1014.5
20260508115318 49 167 0.9 0.9 0.00 0.00 0.00 74 1014.5
20260508114814 48 20 0.0 0.9 0.00 0.00 0.00 75 1014.4
20260508114311 48 172 0.9 0.9 0.00 0.00 0.00 75 1014.4
20260508113808 47 31 0.0 0.9 0.00 0.00 0.00 77 1014.4
20260508113306 46 55 0.0 0.0 0.00 0.00 0.00 79 1014.4
20260508112802 45 32 0.0 0.0 0.00 0.00 0.00 82 1014.2
20260508112259 44 34 0.0 0.0 0.00 0.00 0.00 84 1014.1
20260508111755 43 26 0.0 0.0 0.00 0.00 0.00 86 1014.5
20260508111254 42 357 0.0 0.0 0.00 0.00 0.00 88 1014.2
20260508110750 42 20 0.0 0.0 0.00 0.00 0.00 89 1014.1
20260508110248 42 21 0.0 0.0 0.00 0.00 0.00 89 1013.9
20260508105747 42 30 0.0 0.0 0.00 0.00 0.00 90 1014.1
20260508105244 42 14 0.0 0.0 0.00 0.00 0.00 90 1014.0
20260508104742 42 33 0.0 0.0 0.00 0.00 0.00 91 1013.9
20260508104238 41 93 0.0 0.0 0.00 0.00 0.00 92 1014.1
20260508103736 41 19 0.0 0.0 0.00 0.00 0.00 93 1014.0
20260508103232 40 24 0.0 0.0 0.00 0.00 0.00 93 1013.9
20260508102730 40 11 0.0 0.0 0.00 0.00 0.00 93 1013.8
20260508102228 40 9 0.0 0.0 0.00 0.00 0.00 94 1013.8
20260508101725 40 15 0.0 0.0 0.00 0.00 0.00 94 1013.7
20260508101222 40 12 0.0 0.0 0.00 0.00 0.00 94 1013.7
20260508100720 40 14 0.0 0.0 0.00 0.00 0.00 93 1013.6
20260508100218 40 15 0.0 0.0 0.00 0.00 0.00 93 1013.7
20260508095713 40 5 0.0 0.0 0.00 0.00 0.00 94 1013.6
20260508095212 40 13 0.0 0.0 0.00 0.00 0.00 94 1013.7
20260508094708 40 13 0.0 0.0 0.00 0.00 0.00 94 1013.7
20260508094205 40 18 0.0 0.0 0.00 0.00 0.00 94 1013.7
20260508093702 40 11 0.0 0.0 0.00 0.00 0.00 95 1013.7
20260508093200 40 6 0.0 0.0 0.00 0.00 0.00 95 1013.9
20260508092656 40 24 0.0 0.0 0.00 0.00 0.00 95 1013.8
20260508092155 40 29 0.0 0.0 0.00 0.00 0.00 95 1013.9
20260508091652 40 29 0.0 0.0 0.00 0.00 0.00 95 1013.8
20260508091149 40 29 0.0 0.0 0.00 0.00 0.00 95 1013.9
20260508090647 40 29 0.0 0.0 0.00 0.00 0.00 95 1014.0
20260508090144 40 29 0.0 0.0 0.00 0.00 0.00 94 1013.8
20260508085639 40 29 0.0 0.0 0.00 0.00 0.00 94 1013.9
20260508085137 40 29 0.0 0.0 0.00 0.00 0.00 93 1013.8
20260508084633 40 22 0.0 0.0 0.00 0.00 0.00 93 1013.8
20260508084131 41 22 0.0 0.0 0.00 0.00 0.00 92 1013.8
20260508083628 41 21 0.0 0.0 0.00 0.00 0.00 92 1013.8
20260508083125 41 20 0.0 0.0 0.00 0.00 0.00 91 1013.9
20260508082620 42 40 0.0 0.0 0.00 0.00 0.00 90 1013.7
20260508082119 42 30 0.0 0.0 0.00 0.00 0.00 89 1013.9
20260508081616 42 30 0.0 0.0 0.00 0.00 0.00 89 1013.7
20260508081112 43 30 0.0 0.0 0.00 0.00 0.00 88 1013.9
20260508080609 43 32 0.0 0.9 0.00 0.00 0.00 88 1013.7
20260508080108 43 19 0.0 0.0 0.00 0.00 0.00 88 1013.8
20260508075603 44 20 0.0 0.0 0.00 0.00 0.00 86 1013.9
20260508075101 44 33 0.0 0.0 0.00 0.00 0.00 85 1013.9
20260508074558 45 20 0.0 0.0 0.00 0.00 0.00 84 1013.9
20260508074055 45 32 0.0 0.0 0.00 0.00 0.00 83 1013.8
20260508073552 46 45 0.9 0.9 0.00 0.00 0.00 82 1013.9
20260508073050 46 5 0.0 0.0 0.00 0.00 0.00 80 1013.9
20260508072545 47 71 0.0 0.0 0.00 0.00 0.00 79 1014.0
20260508072043 47 5 0.9 0.9 0.00 0.00 0.00 78 1014.0
20260508071541 47 21 0.9 0.9 0.00 0.00 0.00 77 1013.9
20260508071038 48 103 0.0 0.9 0.00 0.00 0.00 76 1014.0
20260508070536 48 29 0.0 0.0 0.00 0.00 0.00 75 1014.3
20260508070034 48 12 0.0 0.0 0.00 0.00 0.00 76 1014.5
20260508065531 48 26 0.9 1.7 0.00 0.00 0.00 75 1014.5
20260508065029 47 15 0.9 0.9 0.00 0.00 0.00 76 1014.3
20260508064527 47 28 0.0 0.0 0.00 0.00 0.00 76 1013.9
20260508064024 47 25 0.0 0.0 0.00 0.00 0.00 76 1014.1
20260508063521 47 29 0.0 0.0 0.00 0.00 0.00 76 1013.9
20260508063019 47 26 0.0 0.0 0.00 0.00 0.00 76 1013.8
20260508062516 48 24 0.0 0.0 0.00 0.00 0.00 75 1014.0
20260508062013 48 17 0.0 0.0 0.00 0.00 0.00 75 1014.1
20260508061511 48 17 0.0 0.0 0.00 0.00 0.00 75 1013.9
20260508061007 48 29 0.9 0.9 0.00 0.00 0.00 75 1013.9
20260508060505 48 10 0.0 0.0 0.00 0.00 0.00 75 1014.0
20260508060001 48 190 0.9 0.9 0.00 0.00 0.00 74 1014.0
20260508055457 48 13 0.0 0.0 0.00 0.00 0.00 75 1014.0
20260508054954 47 144 0.0 0.9 0.00 0.00 0.00 74 1014.3
20260508054451 47 16 0.0 0.0 0.00 0.00 0.00 77 1014.0
20260508053948 46 175 0.9 0.9 0.00 0.00 0.00 78 1013.9
20260508053444 46 17 0.0 0.0 0.00 0.00 0.00 79 1014.2
20260508052943 45 9 0.0 0.0 0.00 0.00 0.00 80 1014.1
20260508052440 45 8 0.0 0.0 0.00 0.00 0.00 80 1014.1
20260508051936 45 8 0.0 0.0 0.00 0.00 0.00 79 1014.1
20260508051432 45 8 0.0 0.0 0.00 0.00 0.00 79 1014.0
20260508050928 45 8 0.0 0.0 0.00 0.00 0.00 78 1014.2
20260508050425 45 8 0.0 0.0 0.00 0.00 0.00 78 1014.3
20260508045921 45 9 0.0 0.0 0.00 0.00 0.00 78 1014.4
20260508045419 45 8 0.0 0.0 0.00 0.00 0.00 79 1014.3
20260508044916 45 9 0.0 0.0 0.00 0.00 0.00 79 1014.5
20260508044413 45 9 0.0 0.0 0.00 0.00 0.00 80 1014.2
20260508043908 45 9 0.0 0.0 0.00 0.00 0.00 81 1014.4
20260508043406 45 9 0.0 0.0 0.00 0.00 0.00 81 1014.1
20260508042902 45 9 0.0 0.0 0.00 0.00 0.00 81 1014.4
20260508042400 45 9 0.0 0.0 0.00 0.00 0.00 80 1014.3
20260508041857 44 8 0.0 0.0 0.00 0.00 0.00 83 1014.4
20260508041353 44 10 0.0 0.0 0.00 0.00 0.00 84 1014.3
20260508040850 44 9 0.0 0.0 0.00 0.00 0.00 86 1014.2
20260508040347 43 8 0.0 0.0 0.00 0.00 0.00 86 1014.4
20260508035845 43 17 0.0 0.0 0.00 0.00 0.00 87 1014.3
20260508035342 43 19 0.0 0.0 0.00 0.00 0.00 86 1014.2
20260508034839 43 8 0.0 0.0 0.00 0.00 0.00 85 1014.3
20260508034336 43 8 0.0 0.0 0.00 0.00 0.00 84 1014.3
20260508033832 43 8 0.0 0.0 0.00 0.00 0.00 85 1014.2
20260508033331 43 5 0.0 0.0 0.00 0.00 0.00 86 1014.0
20260508032828 43 17 0.0 0.0 0.00 0.00 0.00 86 1014.2
20260508032325 43 17 0.0 0.0 0.00 0.00 0.00 86 1014.0
20260508031821 43 17 0.0 0.0 0.00 0.00 0.00 86 1014.1
20260508031318 43 17 0.0 0.0 0.00 0.00 0.00 86 1014.2
20260508030815 43 17 0.0 0.0 0.00 0.00 0.00 85 1014.2
20260508030312 43 17 0.0 0.0 0.00 0.00 0.00 85 1014.2
20260508025808 43 17 0.0 0.0 0.00 0.00 0.00 84 1014.2
20260508025306 44 17 0.0 0.0 0.00 0.00 0.00 84 1014.3
20260508024802 44 17 0.0 0.0 0.00 0.00 0.00 84 1014.2
20260508024259 44 17 0.0 0.0 0.00 0.00 0.00 82 1014.4
20260508023756 44 17 0.0 0.0 0.00 0.00 0.00 82 1014.2
20260508023253 44 17 0.0 0.0 0.00 0.00 0.00 83 1014.2
20260508022749 44 17 0.0 0.0 0.00 0.00 0.00 82 1014.2
20260508022245 44 17 0.0 0.0 0.00 0.00 0.00 81 1014.4
20260508021743 44 17 0.0 0.0 0.00 0.00 0.00 82 1014.2
20260508021238 44 18 0.0 0.0 0.00 0.00 0.00 82 1014.1
20260508020735 44 19 0.0 0.0 0.00 0.00 0.00 82 1014.1
20260508020232 44 19 0.0 0.0 0.00 0.00 0.00 80 1014.2
20260508015729 45 19 0.0 0.0 0.00 0.00 0.00 79 1014.2
20260508015227 45 19 0.0 0.0 0.00 0.00 0.00 78 1014.3
20260508014723 45 19 0.0 0.0 0.00 0.00 0.00 78 1014.3
20260508014220 46 19 0.0 0.0 0.00 0.00 0.00 77 1014.2
20260508013716 46 19 0.0 0.0 0.00 0.00 0.00 76 1014.3
20260508013212 46 19 0.0 0.0 0.00 0.00 0.00 75 1014.4
20260508012710 47 19 0.0 0.0 0.00 0.00 0.00 73 1014.2
20260508012207 47 19 0.0 0.0 0.00 0.00 0.00 71 1014.2
20260508011705 47 19 0.0 0.0 0.00 0.00 0.00 70 1014.1
20260508011202 48 19 0.0 0.0 0.00 0.00 0.00 69 1014.0
20260508010659 48 19 0.0 0.0 0.00 0.00 0.00 68 1014.1
20260508010157 49 19 0.0 0.0 0.00 0.00 0.00 67 1014.0
20260508005654 49 19 0.0 0.0 0.00 0.00 0.00 65 1013.9
20260508005150 50 19 0.0 0.0 0.00 0.00 0.00 62 1013.8
20260508004646 50 19 0.0 0.0 0.00 0.00 0.00 61 1014.0
20260508004142 51 19 0.0 0.0 0.00 0.00 0.00 60 1013.8
20260508003639 52 19 0.0 0.0 0.00 0.00 0.00 58 1013.8
20260508003137 53 19 0.0 0.0 0.00 0.00 0.00 55 1013.9
20260508002632 53 19 0.0 0.0 0.00 0.00 0.00 53 1013.8
20260508002126 54 19 0.0 0.0 0.00 0.00 0.00 52 1013.8
20260508001626 55 19 0.0 0.0 0.00 0.00 0.00 51 1013.8
20260508001122 55 15 0.0 0.0 0.00 0.00 0.00 48 1013.7
20260508000618 55 15 0.0 0.9 0.00 0.00 0.00 47 1013.5
20260508000116 55 21 0.0 0.0 0.00 0.00 0.00 47 1013.8
20260507235613 56 10 0.0 0.0 0.00 0.00 0.00 46 1013.5
20260507235110 56 8 0.0 0.9 0.00 0.00 0.00 44 1013.6
20260507234606 56 38 0.0 0.9 0.00 0.00 0.00 44 1013.6
20260507234103 57 119 0.9 1.7 0.00 0.00 0.00 45 1013.5
20260507233559 57 29 0.9 0.9 0.00 0.00 0.00 44 1013.5
20260507233059 57 46 0.9 0.9 0.00 0.00 0.00 45 1013.5
20260507232554 57 0 0.9 1.7 0.00 0.00 0.00 43 1013.4
20260507232052 57 55 0.9 0.9 0.00 0.00 0.00 44 1013.4
20260507231548 57 337 0.9 0.9 0.00 0.00 0.00 43 1013.5
20260507231045 57 295 2.6 4.3 0.00 0.00 0.00 42 1013.3
20260507230541 57 359 2.6 2.6 0.00 0.00 0.00 43 1013.6
20260507230038 57 4 1.7 1.7 0.00 0.00 0.00 43 1013.4
20260507225533 57 5 0.9 0.9 0.00 0.00 0.00 44 1013.6
20260507225030 57 342 0.9 0.9 0.00 0.00 0.00 43 1013.6
20260507224526 57 336 1.7 1.7 0.00 0.00 0.00 43 1013.6
20260507224022 58 0 0.9 1.7 0.00 0.00 0.00 42 1013.6
20260507223519 58 278 0.9 1.7 0.00 0.00 0.00 42 1013.7
20260507223016 59 335 2.6 2.6 0.00 0.00 0.00 40 1013.6
20260507222513 59 350 0.9 1.7 0.00 0.00 0.00 40 1013.7
20260507222009 59 116 1.7 1.7 0.00 0.00 0.00 41 1013.7
20260507221506 59 355 0.9 1.7 0.00 0.00 0.00 39 1013.7
20260507221002 59 17 0.9 0.9 0.00 0.00 0.00 43 1013.7
20260507220500 59 32 0.0 0.9 0.00 0.00 0.00 41 1013.6
20260507215956 58 349 0.9 1.7 0.00 0.00 0.00 41 1013.7
20260507215453 58 344 1.7 1.7 0.00 0.00 0.00 44 1013.8
20260507214951 60 24 3.5 6.1 0.00 0.00 0.00 41 1013.6
20260507214448 60 19 1.7 1.7 0.00 0.00 0.00 42 1013.5
20260507213943 60 345 1.7 1.7 0.00 0.00 0.00 41 1013.6
20260507213440 60 32 2.6 4.3 0.00 0.00 0.00 39 1013.6
20260507212937 60 2 1.7 1.7 0.00 0.00 0.00 43 1013.4
20260507212432 60 245 2.6 2.6 0.00 0.00 0.00 43 1013.4
20260507211930 60 12 2.6 2.6 0.00 0.00 0.00 40 1013.3
20260507211426 60 229 0.9 0.9 0.00 0.00 0.00 40 1013.4
20260507210923 60 332 2.6 4.3 0.00 0.00 0.00 42 1013.6
20260507210420 60 28 1.7 1.7 0.00 0.00 0.00 46 1013.5
20260507205917 59 1 1.7 2.6 0.00 0.00 0.00 43 1013.5
20260507205414 59 228 2.6 4.3 0.00 0.00 0.00 42 1013.4
20260507204910 59 15 0.9 0.9 0.00 0.00 0.00 41 1013.2
20260507204407 60 334 2.6 5.2 0.00 0.00 0.00 43 1013.3
20260507203904 59 13 1.7 1.7 0.00 0.00 0.00 43 1013.2
20260507203402 59 329 1.7 2.6 0.00 0.00 0.00 43 1013.3
20260507202858 60 323 1.7 2.6 0.00 0.00 0.00 42 1013.1
20260507202355 59 357 1.7 1.7 0.00 0.00 0.00 46 1013.2
20260507201850 59 246 1.7 2.6 0.00 0.00 0.00 44 1013.2
20260507201346 59 260 2.6 4.3 0.00 0.00 0.00 43 1013.3
20260507200842 60 351 0.9 0.9 0.00 0.00 0.00 45 1013.6
20260507200339 59 13 2.6 2.6 0.00 0.00 0.00 45 1013.4
20260507195835 59 52 2.6 5.2 0.00 0.00 0.00 47 1013.4
20260507195332 59 25 1.7 2.6 0.00 0.00 0.00 46 1013.4
20260507194830 60 342 3.5 5.2 0.00 0.00 0.00 44 1013.2
20260507194326 60 94 0.9 0.9 0.00 0.00 0.00 42 1013.4
20260507193822 59 320 0.9 1.7 0.00 0.00 0.00 41 1013.6
20260507193320 59 15 1.7 2.6 0.00 0.00 0.00 42 1013.7
20260507192815 59 351 3.5 5.2 0.00 0.00 0.00 43 1013.6
20260507192312 61 261 2.6 2.6 0.00 0.00 0.00 46 1013.6
20260507191808 60 263 2.6 2.6 0.00 0.00 0.00 45 1013.5
20260507191305 59 312 2.6 2.6 0.00 0.00 0.00 44 1013.5
20260507190802 59 8 4.3 7.0 0.00 0.00 0.00 42 1013.8
20260507190301 60 19 7.0 9.6 0.00 0.00 0.00 45 1013.8
20260507185759 60 10 1.7 2.6 0.00 0.00 0.00 47 1013.7
20260507185255 60 320 2.6 2.6 0.00 0.00 0.00 45 1013.6
20260507184752 60 312 2.6 4.3 0.00 0.00 0.00 45 1013.7
20260507184251 60 15 2.6 4.3 0.00 0.00 0.00 42 1013.7
20260507183747 61 28 1.7 1.7 0.00 0.00 0.00 48 1013.7
20260507183244 59 345 1.7 1.7 0.00 0.00 0.00 49 1013.7
20260507182741 59 348 1.7 2.6 0.00 0.00 0.00 48 1013.8
20260507182236 60 347 1.7 1.7 0.00 0.00 0.00 47 1013.9
20260507181733 59 13 1.7 2.6 0.00 0.00 0.00 48 1013.5
20260507181230 59 48 2.6 4.3 0.00 0.00 0.00 48 1013.8
20260507180726 60 29 2.6 4.3 0.00 0.00 0.00 46 1013.9
20260507180223 58 354 1.7 2.6 0.00 0.00 0.00 48 1013.8
20260507175719 60 17 1.7 2.6 0.00 0.00 0.00 43 1013.8
20260507175216 60 330 0.9 1.7 0.00 0.00 0.00 50 1013.8
20260507174714 60 346 0.9 0.9 0.00 0.00 0.00 47 1013.9
20260507174211 60 1 0.9 0.9 0.00 0.00 0.00 51 1013.8
20260507173708 58 312 0.9 0.9 0.00 0.00 0.00 45 1014.1
20260507173205 58 19 0.9 1.7 0.00 0.00 0.00 48 1013.9
20260507172702 58 296 1.7 1.7 0.00 0.00 0.00 45 1014.1
20260507172159 58 356 2.6 2.6 0.00 0.00 0.00 46 1014.2
20260507171658 59 342 6.1 8.7 0.00 0.00 0.00 44 1014.3
20260507171156 59 14 2.6 4.3 0.00 0.00 0.00 45 1014.3
20260507170653 59 341 1.7 2.6 0.00 0.00 0.00 49 1014.4
20260507170150 59 349 4.3 8.7 0.00 0.00 0.00 45 1014.5
20260507165646 59 158 1.7 2.6 0.00 0.00 0.00 44 1014.4
20260507165142 58 334 1.7 1.7 0.00 0.00 0.00 45 1014.6
20260507164638 58 321 3.5 6.1 0.00 0.00 0.00 47 1014.6
20260507164135 58 110 2.6 2.6 0.00 0.00 0.00 46 1014.4
20260507163632 58 69 1.7 1.7 0.00 0.00 0.00 44 1014.5
20260507163131 59 21 3.5 4.3 0.00 0.00 0.00 46 1014.5
20260507162626 58 218 2.6 4.3 0.00 0.00 0.00 48 1014.6
20260507162122 58 340 2.6 2.6 0.00 0.00 0.00 46 1014.5
20260507161619 57 254 4.3 6.1 0.00 0.00 0.00 48 1014.5
20260507161116 58 48 2.6 2.6 0.00 0.00 0.00 48 1014.8
20260507160612 58 4 2.6 5.2 0.00 0.00 0.00 47 1014.6
20260507160108 58 227 2.6 4.3 0.00 0.00 0.00 47 1014.5
20260507155603 58 8 2.6 2.6 0.00 0.00 0.00 47 1014.4
20260507155101 58 11 0.9 1.7 0.00 0.00 0.00 50 1014.5